Showing default

UWE-3, 39446

Orbit data source: Space-Track

UWE-3, 39446 is a payload satellite owned by U Wurzburg (DE) in SSO that was launched on Thu, 21 Nov 2013 UTC via a DNEPR launch vehicle from the Orenburg, Russia (OREN). Payload-class satellites include a variety of spacecraft equipped with specific instruments for various scientific and technological missions. These include communications satellites like Starlink; space stations such as the ISS; scientific satellites like the Hubble; Earth observation satellites from companies like Planet Labs, Umbra, and HawkEye 360; GPS; miniature CubeSats for education and research; and military/defense satellites.

Loading next visibility...
Identifier
39446, 2013-066AG
Orbit
SSO
Country
Flag of DEDE / GER
Related business
Manufacturer
U Wurzburg
Mission
Operational Amateur Technology
Bus & Motor
CUBESAT 1U, Unknown motor
Mass
1 kg wet, 1 kg dry
Launch date (UTC)
2013-11-21 (12 years ago)
Launch vehicle
DNEPR
Launch site
Orenburg, Russia (OREN)
Object type
Payload
Rocket body
Debris
Shape & HBR
Box, 0.1 m
Radar Cross Section
0.015 m², Small (<0.1 m²)

Expand to show TLE details & history
Last TLE update: 1 day ago

TLE from 1 day ago
0 UWE-3
1 39446U 13066AG  26036.82439138  .00010655  00000-0  93494-3 0  9996
2 39446  97.8559 352.2552 0051670  39.3948 321.1012 14.95763546657930
Epoch: 2026-02-05T19:47Z
TLE epoch observation values (Epoch: 2026-02-05T19:47:07.415Z)
Latitude
-0.00004°
Longitude
-80.49677°
Altitude
555.135 km
Speed
7.599 km/s
True Right ascension
23h 29m 01s
True Declination
0° 00' 00"
Sunlit
Object was in daylight at epoch
Visualization orbit readout
Latitude
Unknown
Longitude
Unknown
Altitude
Unknown
Speed
Unknown
Apparent Right ascension
Unknown
Apparent Declination
Unknown
Sunlit
N/A
Visualization observer readout
Local Sidereal Time
04:29:07
Azimuth
Unknown
Elevation
Unknown
Doppler factor
Unknown
Orbital elements
Apogee altitude
612.959 km
Perigee altitude
541.084 km
Semi-major axis
6,955.159 km
Eccentricity
0.00517
Inclination
97.8559°
RAAN
352.2552°
Arg. of periapsis
39.3948°
True anomaly
320.72752°
Mean anomaly
321.1012°
Eccentric anomaly
320.91455°
Mean motion
3.74182 °/min
Orbital period
96.21 mins
BSTAR
0.00093494
Loading maneuver chart data...
Computing Atmospheric mass density...
Loading historical data...
Loading historical data...
Loading historical data...
Loading historical data...
Loading historical data...
Loading historical data...
Loading historical data...

Documentation

Showing up to 5 results
|